STARLINK-36105 (66850 NORAD) Tracking and Keplerian Element Data

This shows tracking and keplerian element data for the satellite.

Feedback or suggestion? Click here.




ElementValue
Catalog66850
NameSTARLINK-36105
Epoch Orbit260
Epoch Day354.25003472
Epoch Year2025
RAAN76.3818
Inclination43.0007
Eccentricity0.0001009
Argument of Perigee269.344
Mean Anonmoly220.6892
Mean Motion15.75428198
Decay Rate-0.01727382
L11 66850U 25281C 25354.25003472 -.01727382 00000+0 -12537-1 0 9995
L22 66850 43.0007 76.3818 0001009 269.3440 220.6892 15.75428198 2609



Live tracking and technical data element details for STARLINK-36105 (NORAD 66850). STARLINK-36105 can be tracked NOW for your location showing map with azimuth and elevation plus other details from your city location.







IsCatalogInMostPopularTable: catalog: 66850, numindb: 11
Update: records affected: 1



GetName: 66850 STARLINK-36105

Hit Count: updated at: Wed, 11 Feb 2026 15:19:28 GMT